• In Latvia
  • List of Countries
  • For 7 days
  • Water Temperature
  • Satellite Maps
  • Weather Map
  • Weather Widgets
  • user-avatar
    Login

    Hourly Weather Ibrat

    Today, 21 August, Tuesday

    Time Temperature Precipitation Wind Pressure Humidity
    00:00 +29°C° 0 mm 7 mps 704 mmHg 36%
    01:00 +28°C° 0 mm 6 mps 704 mmHg 38%
    02:00 +27°C° 0 mm 6 mps 704 mmHg 40%
    03:00 +27°C° 0 mm 5 mps 704 mmHg 42%
    04:00 +26°C° 0 mm 5 mps 704 mmHg 43%
    05:00 +25°C° 0 mm 5 mps 704 mmHg 46%
    06:00 +26°C° 0 mm 5 mps 704 mmHg 44%
    07:00 +27°C° 0 mm 5 mps 704 mmHg 42%
    08:00 +28°C° 0 mm 5 mps 704 mmHg 41%
    09:00 +29°C° 0 mm 5 mps 704 mmHg 38%
    10:00 +30°C° 0 mm 5 mps 704 mmHg 36%
    11:00 +33°C° 0 mm 5 mps 704 mmHg 34%
    12:00 +34°C° 0 mm 5 mps 704 mmHg 33%
    13:00 +34°C° 0 mm 5 mps 704 mmHg 32%
    14:00 +35°C° 0 mm 6 mps 704 mmHg 31%
    15:00 +34°C° 0 mm 6 mps 703 mmHg 32%
    16:00 +34°C° 0 mm 6 mps 703 mmHg 33%
    17:00 +33°C° 0 mm 6 mps 703 mmHg 34%
    18:00 +32°C° 0.1 mm 6 mps 703 mmHg 36%
    19:00 +30°C° 0.1 mm 6 mps 704 mmHg 37%
    20:00 +29°C° 0.1 mm 6 mps 704 mmHg 39%
    21:00 +28°C° 0.2 mm 6 mps 704 mmHg 40%
    22:00 +27°C° 0.2 mm 5 mps 704 mmHg 40%
    23:00 +26°C° 0.2 mm 5 mps 704 mmHg 41%

    Tomorrow, 22 August, Wednesday

    Time Temperature Precipitation Wind Pressure Humidity
    00:00 +26°C° 0.2 mm 5 mps 704 mmHg 43%
    01:00 +25°C° 0.2 mm 4 mps 703 mmHg 44%
    02:00 +25°C° 0.2 mm 4 mps 703 mmHg 46%
    03:00 +24°C° 0.1 mm 3 mps 703 mmHg 47%
    04:00 +24°C° 0.1 mm 2 mps 703 mmHg 48%
    05:00 +23°C° 0.1 mm 2 mps 703 mmHg 50%
    06:00 +24°C° 0 mm 2 mps 703 mmHg 46%
    07:00 +25°C° 0 mm 2 mps 703 mmHg 42%
    08:00 +26°C° 0 mm 2 mps 704 mmHg 38%
    09:00 +27°C° 0 mm 2 mps 703 mmHg 35%
    10:00 +29°C° 0 mm 2 mps 703 mmHg 32%
    11:00 +30°C° 0 mm 2 mps 703 mmHg 29%
    12:00 +31°C° 0 mm 2 mps 703 mmHg 27%
    13:00 +32°C° 0 mm 2 mps 703 mmHg 26%
    14:00 +34°C° 0 mm 3 mps 703 mmHg 25%
    15:00 +34°C° 0 mm 3 mps 703 mmHg 25%
    16:00 +34°C° 0 mm 3 mps 702 mmHg 24%
    17:00 +34°C° 0 mm 3 mps 702 mmHg 24%
    18:00 +33°C° 0 mm 3 mps 703 mmHg 26%
    19:00 +30°C° 0 mm 3 mps 703 mmHg 28%
    20:00 +29°C° 0 mm 3 mps 703 mmHg 31%
    21:00 +28°C° 0 mm 3 mps 703 mmHg 32%
    22:00 +28°C° 0 mm 3 mps 703 mmHg 34%
    23:00 +27°C° 0 mm 2 mps 703 mmHg 35%

    Day after tomorrow, 23 August, Thursday

    Time Temperature Precipitation Wind Pressure Humidity
    00:00 +26°C° 0 mm 2 mps 703 mmHg 36%
    01:00 +26°C° 0 mm 2 mps 703 mmHg 37%
    02:00 +25°C° 0 mm 1 mps 702 mmHg 38%
    03:00 +25°C° 0 mm 1 mps 702 mmHg 39%
    04:00 +24°C° 0 mm 1 mps 702 mmHg 40%
    05:00 +24°C° 0 mm 1 mps 702 mmHg 40%
    06:00 +25°C° 0 mm 1 mps 702 mmHg 36%
    07:00 +26°C° 0 mm 1 mps 702 mmHg 33%
    08:00 +27°C° 0 mm 1 mps 703 mmHg 29%
    09:00 +29°C° 0 mm 1 mps 702 mmHg 27%
    10:00 +30°C° 0 mm 2 mps 702 mmHg 25%
    11:00 +32°C° 0 mm 2 mps 702 mmHg 23%
    12:00 +32°C° 0 mm 2 mps 702 mmHg 22%
    13:00 +34°C° 0 mm 2 mps 702 mmHg 21%
    14:00 +35°C° 0 mm 3 mps 701 mmHg 21%
    15:00 +35°C° 0 mm 3 mps 701 mmHg 21%
    16:00 +35°C° 0 mm 3 mps 701 mmHg 21%
    17:00 +35°C° 0 mm 4 mps 701 mmHg 21%
    18:00 +34°C° 0 mm 4 mps 702 mmHg 23%
    19:00 +32°C° 0 mm 4 mps 702 mmHg 25%
    20:00 +30°C° 0 mm 3 mps 702 mmHg 27%
    21:00 +29°C° 0 mm 3 mps 702 mmHg 28%
    22:00 +28°C° 0 mm 3 mps 702 mmHg 29%
    23:00 +28°C° 0 mm 3 mps 702 mmHg 30%

    24 August, Friday

    Time Temperature Precipitation Wind Pressure Humidity
    00:00 +27°C° 0 mm 3 mps 702 mmHg 30%
    01:00 +27°C° 0 mm 3 mps 702 mmHg 30%
    02:00 +26°C° 0 mm 3 mps 702 mmHg 30%
    03:00 +26°C° 0 mm 2 mps 702 mmHg 31%
    04:00 +25°C° 0 mm 2 mps 702 mmHg 31%
    05:00 +24°C° 0 mm 2 mps 702 mmHg 31%
    06:00 +26°C° 0 mm 2 mps 703 mmHg 28%
    07:00 +27°C° 0 mm 2 mps 703 mmHg 25%
    08:00 +29°C° 0 mm 2 mps 704 mmHg 21%
    09:00 +30°C° 0 mm 3 mps 704 mmHg 19%
    10:00 +31°C° 0 mm 3 mps 704 mmHg 17%
    11:00 +33°C° 0 mm 3 mps 704 mmHg 15%
    12:00 +34°C° 0 mm 4 mps 703 mmHg 15%
    13:00 +35°C° 0 mm 4 mps 703 mmHg 14%
    14:00 +36°C° 0 mm 5 mps 703 mmHg 14%
    15:00 +35°C° 0 mm 5 mps 703 mmHg 14%
    16:00 +35°C° 0 mm 5 mps 703 mmHg 15%
    17:00 +35°C° 0 mm 6 mps 703 mmHg 15%
    18:00 +33°C° 0 mm 5 mps 703 mmHg 17%
    19:00 +32°C° 0 mm 5 mps 703 mmHg 19%
    20:00 +29°C° 0 mm 4 mps 704 mmHg 20%
    21:00 +28°C° 0 mm 4 mps 703 mmHg 22%
    22:00 +28°C° 0 mm 3 mps 703 mmHg 23%
    23:00 +27°C° 0 mm 3 mps 703 mmHg 24%

    25 August, Saturday

    Time Temperature Precipitation Wind Pressure Humidity
    00:00 +26°C° 0 mm 2 mps 703 mmHg 25%
    01:00 +25°C° 0 mm 2 mps 702 mmHg 26%
    02:00 +25°C° 0 mm 1 mps 702 mmHg 27%
    03:00 +24°C° 0 mm 1 mps 702 mmHg 28%
    04:00 +23°C° 0 mm 1 mps 702 mmHg 29%
    05:00 +21°C° 0 mm 0 mps 702 mmHg 30%
    06:00 +24°C° 0 mm 1 mps 702 mmHg 27%
    07:00 +26°C° 0 mm 1 mps 702 mmHg 25%
    08:00 +27°C° 0 mm 1 mps 702 mmHg 22%
    09:00 +28°C° 0 mm 1 mps 702 mmHg 21%
    10:00 +30°C° 0 mm 2 mps 702 mmHg 19%
    11:00 +31°C° 0 mm 2 mps 701 mmHg 18%
    12:00 +32°C° 0 mm 2 mps 701 mmHg 17%
    13:00 +34°C° 0 mm 3 mps 701 mmHg 16%
    14:00 +35°C° 0 mm 3 mps 700 mmHg 15%
    15:00 +35°C° 0 mm 3 mps 700 mmHg 15%
    16:00 +35°C° 0 mm 3 mps 700 mmHg 15%
    17:00 +35°C° 0 mm 4 mps 700 mmHg 15%
    18:00 +33°C° 0 mm 4 mps 700 mmHg 18%
    19:00 +31°C° 0 mm 3 mps 701 mmHg 20%
    20:00 +29°C° 0 mm 3 mps 701 mmHg 22%
    21:00 +28°C° 0 mm 3 mps 701 mmHg 23%
    22:00 +28°C° 0 mm 3 mps 700 mmHg 24%
    23:00 +27°C° 0 mm 3 mps 700 mmHg 25%

    26 August, Sunday

    Time Temperature Precipitation Wind Pressure Humidity
    00:00 +26°C° 0 mm 3 mps 700 mmHg 25%
    01:00 +26°C° 0 mm 3 mps 700 mmHg 26%
    02:00 +25°C° 0 mm 3 mps 700 mmHg 26%
    03:00 +24°C° 0 mm 3 mps 700 mmHg 27%
    04:00 +24°C° 0 mm 3 mps 700 mmHg 28%
    05:00 +22°C° 0 mm 4 mps 700 mmHg 29%
    06:00 +23°C° 0 mm 4 mps 701 mmHg 27%
    07:00 +26°C° 0 mm 4 mps 701 mmHg 25%
    08:00 +27°C° 0 mm 5 mps 701 mmHg 23%
    09:00 +28°C° 0 mm 5 mps 701 mmHg 21%
    10:00 +29°C° 0 mm 5 mps 701 mmHg 20%
    11:00 +30°C° 0 mm 5 mps 701 mmHg 19%
    12:00 +32°C° 0 mm 5 mps 701 mmHg 18%
    13:00 +33°C° 0 mm 6 mps 701 mmHg 18%
    14:00 +33°C° 0 mm 6 mps 700 mmHg 17%
    15:00 +33°C° 0 mm 6 mps 700 mmHg 18%
    16:00 +32°C° 0 mm 7 mps 700 mmHg 18%
    17:00 +32°C° 0 mm 7 mps 700 mmHg 18%
    18:00 +30°C° 0 mm 7 mps 701 mmHg 20%
    19:00 +28°C° 0 mm 6 mps 701 mmHg 21%
    20:00 +27°C° 0 mm 6 mps 702 mmHg 22%
    21:00 +26°C° 0 mm 6 mps 702 mmHg 23%
    22:00 +25°C° 0 mm 5 mps 702 mmHg 24%
    23:00 +25°C° 0 mm 5 mps 702 mmHg 25%
    Show more